Location: Beuerbach
(48.1459°N, 10.9174°E)
Time: 02:35:33
(UTC+00:00)

ASTEX 1 - Pass Details

Date: 23 May 2024
Orbit: 715 x 740 km, 92.7° (Epoch: 19 June)

Event Time Altitude Azimuth Distance (km) Brightness Sun altitude
Rises 02:27:44 0° 160° (SSE) 3,150 6.4 -8.6°
Reaches altitude 10° 02:30:04 10° 156° (SSE) 2,229 5.7 -8.3°
Maximum altitude 02:34:52 56° 79° (E) 867 4.2 -7.8°
Drops below altitude 10° 02:39:41 10° 2° (N) 2,229 6.6 -7.2°
Sets 02:42:00 0° 358° (N) 3,151 7.3 -6.9°
